| time (UTC) | temp C | wind direction | speed KPH | gust KPH | rain 1hr cm | rain 24hr cm | rain mn cm | humidity % | barometer mb |
| 20260509005505 | 22 | 306 | 3.2 | 6.4 | 0.00 | 0.00 | 0.00 | 31 | 1005.3 |
| 20260509005005 | 22 | 292 | 1.6 | 6.4 | 0.00 | 0.00 | 0.00 | 31 | 1005.3 |
| 20260509004501 | 22 | 326 | 1.6 | 11.3 | 0.00 | 0.00 | 0.00 | 32 | 1005.2 |
| 20260509004009 | 23 | 339 | 3.2 | 11.3 | 0.00 | 0.00 | 0.00 | 29 | 1005.2 |
| 20260509003507 | 23 | 302 | 3.2 | 12.9 | 0.00 | 0.00 | 0.00 | 30 | 1005.2 |
| 20260509003008 | 23 | 315 | 3.2 | 12.9 | 0.00 | 0.00 | 0.00 | 30 | 1005.2 |
| 20260509002505 | 23 | 329 | 6.4 | 12.9 | 0.00 | 0.00 | 0.00 | 31 | 1005.1 |
| 20260509002002 | 23 | 337 | 3.2 | 9.7 | 0.00 | 0.00 | 0.00 | 30 | 1005.0 |
| 20260509001510 | 22 | 296 | 1.6 | 6.4 | 0.00 | 0.00 | 0.00 | 35 | 1005.1 |
| 20260509001004 | 22 | 336 | 3.2 | 6.4 | 0.00 | 0.00 | 0.00 | 35 | 1005.1 |
| 20260509000509 | 22 | 346 | 0.0 | 4.8 | 0.00 | 0.00 | 0.00 | 38 | 1005.1 |
| 20260509000005 | 22 | 348 | 0.0 | 3.2 | 0.00 | 0.00 | 0.00 | 37 | 1005.2 |
| 20260508235502 | 22 | 348 | 0.0 | 4.8 | 0.00 | 0.00 | 0.00 | 39 | 1005.1 |
| 20260508235002 | 22 | 348 | 0.0 | 4.8 | 0.00 | 0.00 | 0.00 | 40 | 1005.2 |
| 20260508234506 | 21 | 349 | 0.0 | 4.8 | 0.00 | 0.00 | 0.00 | 43 | 1005.2 |
| 20260508234008 | 21 | 227 | 0.0 | 4.8 | 0.00 | 0.00 | 0.00 | 41 | 1005.2 |
| 20260508233505 | 21 | 315 | 0.0 | 3.2 | 0.00 | 0.00 | 0.00 | 41 | 1005.2 |
| 20260508233012 | 21 | 315 | 0.0 | 3.2 | 0.00 | 0.00 | 0.00 | 44 | 1005.3 |
| 20260508232504 | 22 | 315 | 0.0 | 8.0 | 0.00 | 0.00 | 0.00 | 38 | 1005.3 |
| 20260508232009 | 22 | 309 | 0.0 | 8.0 | 0.00 | 0.00 | 0.00 | 36 | 1005.4 |
| 20260508231510 | 22 | 338 | 0.0 | 4.8 | 0.00 | 0.00 | 0.00 | 34 | 1005.3 |
| 20260508231008 | 23 | 338 | 0.0 | 6.4 | 0.00 | 0.00 | 0.00 | 33 | 1005.3 |
| 20260508230502 | 23 | 320 | 3.2 | 6.4 | 0.00 | 0.00 | 0.00 | 32 | 1005.2 |
| 20260508230008 | 23 | 355 | 1.6 | 4.8 | 0.00 | 0.00 | 0.00 | 34 | 1005.2 |
| 20260508225512 | 23 | 336 | 0.0 | 6.4 | 0.00 | 0.00 | 0.00 | 32 | 1005.3 |
| 20260508225003 | 23 | 328 | 1.6 | 6.4 | 0.00 | 0.00 | 0.00 | 32 | 1005.3 |
| 20260508224512 | 23 | 319 | 1.6 | 16.1 | 0.00 | 0.00 | 0.00 | 34 | 1005.3 |
| 20260508224005 | 24 | 318 | 6.4 | 16.1 | 0.00 | 0.00 | 0.00 | 31 | 1005.4 |
| 20260508223505 | 24 | 298 | 3.2 | 11.3 | 0.00 | 0.00 | 0.00 | 33 | 1005.4 |
| 20260508223030 | 24 | 252 | 1.6 | 14.5 | 0.00 | 0.00 | 0.00 | 31 | 1005.4 |
| 20260508222507 | 23 | 244 | 3.2 | 14.5 | 0.00 | 0.00 | 0.00 | 30 | 1005.5 |
| 20260508222009 | 24 | 246 | 3.2 | 14.5 | 0.00 | 0.00 | 0.00 | 29 | 1005.5 |
| 20260508221507 | 25 | 234 | 3.2 | 11.3 | 0.00 | 0.00 | 0.00 | 31 | 1005.4 |
| 20260508221010 | 25 | 238 | 4.8 | 11.3 | 0.00 | 0.00 | 0.00 | 29 | 1005.5 |
| 20260508220506 | 25 | 132 | 0.0 | 12.9 | 0.00 | 0.00 | 0.00 | 27 | 1005.5 |
| 20260508220014 | 25 | 278 | 4.8 | 12.9 | 0.00 | 0.00 | 0.00 | 31 | 1005.6 |
| 20260508215503 | 25 | 87 | 1.6 | 12.9 | 0.00 | 0.00 | 0.00 | 30 | 1005.6 |
| 20260508215006 | 25 | 144 | 3.2 | 12.9 | 0.00 | 0.00 | 0.00 | 29 | 1005.7 |
| 20260508214516 | 25 | 257 | 0.0 | 8.0 | 0.00 | 0.00 | 0.00 | 27 | 1005.7 |
| 20260508214008 | 25 | 51 | 1.6 | 9.7 | 0.00 | 0.00 | 0.00 | 27 | 1005.7 |
| 20260508213505 | 26 | 253 | 3.2 | 9.7 | 0.00 | 0.00 | 0.00 | 29 | 1005.9 |
| 20260508213017 | 25 | 288 | 3.2 | 8.0 | 0.00 | 0.00 | 0.00 | 29 | 1005.9 |
| 20260508212506 | 25 | 137 | 1.6 | 11.3 | 0.00 | 0.00 | 0.00 | 27 | 1005.9 |
| 20260508212005 | 25 | 333 | 3.2 | 11.3 | 0.00 | 0.00 | 0.00 | 31 | 1005.9 |
| 20260508211513 | 24 | 167 | 0.0 | 11.3 | 0.00 | 0.00 | 0.00 | 28 | 1005.9 |
| 20260508211003 | 25 | 321 | 4.8 | 11.3 | 0.00 | 0.00 | 0.00 | 30 | 1006.0 |
| 20260508210508 | 25 | 347 | 3.2 | 11.3 | 0.00 | 0.00 | 0.00 | 36 | 1006.1 |
| 20260508210009 | 25 | 336 | 3.2 | 11.3 | 0.00 | 0.00 | 0.00 | 30 | 1006.1 |
| 20260508205502 | 23 | 340 | 1.6 | 14.5 | 0.00 | 0.00 | 0.00 | 32 | 1006.3 |
| 20260508205003 | 24 | 277 | 4.8 | 14.5 | 0.00 | 0.00 | 0.00 | 28 | 1006.3 |
| 20260508204508 | 25 | 278 | 0.0 | 17.7 | 0.00 | 0.00 | 0.00 | 35 | 1006.4 |
| 20260508204006 | 25 | 323 | 4.8 | 17.7 | 0.00 | 0.00 | 0.00 | 30 | 1006.5 |
| 20260508203503 | 25 | 313 | 0.0 | 12.9 | 0.00 | 0.00 | 0.00 | 34 | 1006.5 |
| 20260508203006 | 25 | 293 | 4.8 | 12.9 | 0.00 | 0.00 | 0.00 | 29 | 1006.6 |
| 20260508202503 | 25 | 324 | 4.8 | 12.9 | 0.00 | 0.00 | 0.00 | 26 | 1006.7 |
| 20260508202006 | 25 | 297 | 3.2 | 14.5 | 0.00 | 0.00 | 0.00 | 28 | 1006.7 |
| 20260508201505 | 25 | 275 | 1.6 | 14.5 | 0.00 | 0.00 | 0.00 | 28 | 1006.8 |
| 20260508201008 | 25 | 324 | 4.8 | 14.5 | 0.00 | 0.00 | 0.00 | 32 | 1006.9 |
| 20260508200504 | 24 | 331 | 1.6 | 8.0 | 0.00 | 0.00 | 0.00 | 31 | 1006.9 |
| 20260508200016 | 24 | 344 | 1.6 | 8.0 | 0.00 | 0.00 | 0.00 | 29 | 1007.2 |
| 20260508195508 | 23 | 206 | 1.6 | 8.0 | 0.00 | 0.00 | 0.00 | 29 | 1007.2 |
| 20260508195002 | 23 | 212 | 0.0 | 3.2 | 0.00 | 0.00 | 0.00 | 32 | 1007.2 |
| 20260508194518 | 23 | 182 | 0.0 | 6.4 | 0.00 | 0.00 | 0.00 | 30 | 1007.3 |
| 20260508194002 | 23 | 275 | 1.6 | 6.4 | 0.00 | 0.00 | 0.00 | 27 | 1007.3 |
| 20260508193506 | 23 | 207 | 0.0 | 11.3 | 0.00 | 0.00 | 0.00 | 31 | 1007.3 |
| 20260508193018 | 23 | 154 | 1.6 | 14.5 | 0.00 | 0.00 | 0.00 | 28 | 1007.3 |
| 20260508192503 | 23 | 196 | 1.6 | 14.5 | 0.00 | 0.00 | 0.00 | 30 | 1007.3 |
| 20260508192006 | 24 | 246 | 4.8 | 11.3 | 0.00 | 0.00 | 0.00 | 28 | 1007.5 |
| 20260508191516 | 24 | 133 | 1.6 | 9.7 | 0.00 | 0.00 | 0.00 | 31 | 1007.5 |
| 20260508191002 | 24 | 281 | 3.2 | 9.7 | 0.00 | 0.00 | 0.00 | 26 | 1007.6 |
| 20260508190505 | 23 | 88 | 0.0 | 8.0 | 0.00 | 0.00 | 0.00 | 32 | 1007.6 |
| 20260508190009 | 23 | 325 | 3.2 | 12.9 | 0.00 | 0.00 | 0.00 | 31 | 1007.7 |
| 20260508185506 | 23 | 292 | 4.8 | 12.9 | 0.00 | 0.00 | 0.00 | 27 | 1007.9 |
| 20260508185009 | 24 | 355 | 4.8 | 12.9 | 0.00 | 0.00 | 0.00 | 30 | 1007.9 |
| 20260508184510 | 23 | 273 | 1.6 | 9.7 | 0.00 | 0.00 | 0.00 | 31 | 1007.9 |
| 20260508184007 | 23 | 57 | 1.6 | 11.3 | 0.00 | 0.00 | 0.00 | 28 | 1008.0 |
| 20260508183511 | 23 | 74 | 3.2 | 11.3 | 0.00 | 0.00 | 0.00 | 29 | 1008.1 |
| 20260508183007 | 23 | 43 | 1.6 | 6.4 | 0.00 | 0.00 | 0.00 | 29 | 1008.1 |
| 20260508182508 | 23 | 274 | 1.6 | 9.7 | 0.00 | 0.00 | 0.00 | 27 | 1008.2 |
| 20260508182006 | 23 | 320 | 3.2 | 11.3 | 0.00 | 0.00 | 0.00 | 30 | 1008.2 |
| 20260508181523 | 22 | 154 | 0.0 | 11.3 | 0.00 | 0.00 | 0.00 | 29 | 1008.2 |
| 20260508181003 | 22 | 151 | 1.6 | 8.0 | 0.00 | 0.00 | 0.00 | 27 | 1008.4 |
| 20260508180507 | 22 | 355 | 1.6 | 6.4 | 0.00 | 0.00 | 0.00 | 28 | 1008.4 |
| 20260508180010 | 22 | 126 | 1.6 | 6.4 | 0.00 | 0.00 | 0.00 | 33 | 1008.4 |
| 20260508175506 | 22 | 95 | 1.6 | 11.3 | 0.00 | 0.00 | 0.00 | 31 | 1008.5 |
| 20260508175006 | 22 | 84 | 1.6 | 11.3 | 0.00 | 0.00 | 0.00 | 28 | 1008.5 |
| 20260508174515 | 22 | 45 | 0.0 | 3.2 | 0.00 | 0.00 | 0.00 | 36 | 1008.6 |
| 20260508174011 | 21 | 46 | 0.0 | 4.8 | 0.00 | 0.00 | 0.00 | 35 | 1008.7 |
| 20260508173508 | 21 | 88 | 1.6 | 4.8 | 0.00 | 0.00 | 0.00 | 31 | 1008.7 |
| 20260508173017 | 22 | 360 | 0.0 | 4.8 | 0.00 | 0.00 | 0.00 | 29 | 1008.7 |
| 20260508172505 | 21 | 51 | 1.6 | 8.0 | 0.00 | 0.00 | 0.00 | 33 | 1008.8 |
| 20260508172013 | 22 | 304 | 1.6 | 8.0 | 0.00 | 0.00 | 0.00 | 30 | 1008.9 |
| 20260508171514 | 21 | 61 | 0.0 | 4.8 | 0.00 | 0.00 | 0.00 | 39 | 1008.9 |
| 20260508171009 | 22 | 34 | 1.6 | 4.8 | 0.00 | 0.00 | 0.00 | 39 | 1008.9 |
| 20260508170506 | 21 | 24 | 0.0 | 4.8 | 0.00 | 0.00 | 0.00 | 35 | 1008.9 |
| 20260508170013 | 21 | 63 | 0.0 | 4.8 | 0.00 | 0.00 | 0.00 | 37 | 1009.0 |
| 20260508165504 | 20 | 63 | 0.0 | 4.8 | 0.00 | 0.00 | 0.00 | 39 | 1009.0 |
| 20260508165017 | 20 | 5 | 0.0 | 3.2 | 0.00 | 0.00 | 0.00 | 42 | 1008.9 |
| 20260508164516 | 20 | 5 | 0.0 | 3.2 | 0.00 | 0.00 | 0.00 | 39 | 1008.9 |
| 20260508164011 | 20 | 5 | 0.0 | 3.2 | 0.00 | 0.00 | 0.00 | 36 | 1008.9 |
| 20260508163506 | 20 | 338 | 0.0 | 6.4 | 0.00 | 0.00 | 0.00 | 38 | 1009.0 |
| 20260508163010 | 20 | 338 | 3.2 | 6.4 | 0.00 | 0.00 | 0.00 | 39 | 1009.0 |
| 20260508162506 | 20 | 111 | 1.6 | 6.4 | 0.00 | 0.00 | 0.00 | 37 | 1009.0 |
| 20260508162005 | 20 | 86 | 1.6 | 9.7 | 0.00 | 0.00 | 0.00 | 38 | 1008.9 |
| 20260508161523 | 20 | 86 | 1.6 | 9.7 | 0.00 | 0.00 | 0.00 | 42 | 1008.9 |
| 20260508161010 | 21 | 80 | 0.0 | 4.8 | 0.00 | 0.00 | 0.00 | 39 | 1008.9 |
| 20260508160507 | 20 | 222 | 0.0 | 6.4 | 0.00 | 0.00 | 0.00 | 42 | 1009.0 |
| 20260508160019 | 20 | 221 | 1.6 | 9.7 | 0.00 | 0.00 | 0.00 | 38 | 1009.0 |
| 20260508155507 | 20 | 182 | 0.0 | 9.7 | 0.00 | 0.00 | 0.00 | 40 | 1009.0 |
| 20260508155006 | 20 | 206 | 0.0 | 6.4 | 0.00 | 0.00 | 0.00 | 36 | 1009.0 |
| 20260508154518 | 20 | 327 | 0.0 | 6.4 | 0.00 | 0.00 | 0.00 | 41 | 1009.0 |
| 20260508154013 | 20 | 55 | 0.0 | 6.4 | 0.00 | 0.00 | 0.00 | 39 | 1009.0 |
| 20260508153505 | 19 | 105 | 0.0 | 6.4 | 0.00 | 0.00 | 0.00 | 41 | 1009.1 |
| 20260508153014 | 18 | 271 | 1.6 | 6.4 | 0.00 | 0.00 | 0.00 | 40 | 1009.2 |
| 20260508152507 | 18 | 161 | 0.0 | 6.4 | 0.00 | 0.00 | 0.00 | 45 | 1009.2 |
| 20260508152007 | 18 | 207 | 0.0 | 6.4 | 0.00 | 0.00 | 0.00 | 44 | 1009.2 |
| 20260508151518 | 18 | 109 | 0.0 | 6.4 | 0.00 | 0.00 | 0.00 | 46 | 1009.3 |
| 20260508151009 | 17 | 78 | 0.0 | 6.4 | 0.00 | 0.00 | 0.00 | 49 | 1009.2 |
| 20260508150510 | 18 | 260 | 1.6 | 6.4 | 0.00 | 0.00 | 0.00 | 46 | 1009.2 |
| 20260508150021 | 18 | 166 | 1.6 | 6.4 | 0.00 | 0.00 | 0.00 | 46 | 1009.3 |
| 20260508145507 | 18 | 71 | 1.6 | 4.8 | 0.00 | 0.00 | 0.00 | 48 | 1009.1 |
| 20260508145007 | 17 | 174 | 0.0 | 4.8 | 0.00 | 0.00 | 0.00 | 49 | 1009.1 |
| 20260508144514 | 17 | 84 | 0.0 | 6.4 | 0.00 | 0.00 | 0.00 | 47 | 1009.2 |
| 20260508144007 | 17 | 84 | 1.6 | 6.4 | 0.00 | 0.00 | 0.00 | 46 | 1009.3 |
| 20260508143507 | 16 | 145 | 0.0 | 4.8 | 0.00 | 0.00 | 0.00 | 52 | 1009.4 |
| 20260508143023 | 16 | 102 | 0.0 | 4.8 | 0.00 | 0.00 | 0.00 | 51 | 1009.4 |
| 20260508142506 | 16 | 105 | 0.0 | 3.2 | 0.00 | 0.00 | 0.00 | 54 | 1009.5 |
| 20260508142006 | 15 | 105 | 0.0 | 3.2 | 0.00 | 0.00 | 0.00 | 54 | 1009.5 |
| 20260508141516 | 15 | 105 | 0.0 | 3.2 | 0.00 | 0.00 | 0.00 | 58 | 1009.5 |
| 20260508141010 | 15 | 105 | 0.0 | 3.2 | 0.00 | 0.00 | 0.00 | 59 | 1009.5 |
| 20260508140508 | 15 | 171 | 0.0 | 0.0 | 0.00 | 0.00 | 0.00 | 63 | 1009.5 |
| 20260508140015 | 13 | 171 | 0.0 | 0.0 | 0.00 | 0.00 | 0.00 | 68 | 1009.5 |
| 20260508135511 | 13 | 171 | 0.0 | 0.0 | 0.00 | 0.00 | 0.00 | 65 | 1009.5 |
| 20260508135011 | 12 | 171 | 0.0 | 0.0 | 0.00 | 0.00 | 0.00 | 73 | 1009.5 |
| 20260508134524 | 12 | 171 | 0.0 | 0.0 | 0.00 | 0.00 | 0.00 | 74 | 1009.5 |
| 20260508134010 | 11 | 171 | 0.0 | 0.0 | 0.00 | 0.00 | 0.00 | 74 | 1009.6 |
| 20260508133507 | 11 | 171 | 0.0 | 0.0 | 0.00 | 0.00 | 0.00 | 76 | 1009.6 |
| 20260508133023 | 11 | 171 | 0.0 | 0.0 | 0.00 | 0.00 | 0.00 | 74 | 1009.6 |
| 20260508132506 | 11 | 171 | 0.0 | 0.0 | 0.00 | 0.00 | 0.00 | 74 | 1009.5 |
| 20260508132010 | 11 | 171 | 0.0 | 0.0 | 0.00 | 0.00 | 0.00 | 72 | 1009.6 |
| 20260508131520 | 11 | 171 | 0.0 | 0.0 | 0.00 | 0.00 | 0.00 | 71 | 1009.5 |
| 20260508131011 | 11 | 171 | 0.0 | 0.0 | 0.00 | 0.00 | 0.00 | 71 | 1009.4 |
| 20260508130512 | 11 | 171 | 0.0 | 0.0 | 0.00 | 0.00 | 0.00 | 68 | 1009.2 |
| 20260508130021 | 10 | 171 | 0.0 | 0.0 | 0.00 | 0.00 | 0.00 | 69 | 1009.2 |
| 20260508125512 | 10 | 171 | 0.0 | 0.0 | 0.00 | 0.00 | 0.00 | 69 | 1009.1 |
| 20260508125006 | 10 | 171 | 0.0 | 0.0 | 0.00 | 0.00 | 0.00 | 68 | 1009.0 |
| 20260508124516 | 10 | 171 | 0.0 | 0.0 | 0.00 | 0.00 | 0.00 | 69 | 1009.0 |
| 20260508124012 | 10 | 171 | 0.0 | 0.0 | 0.00 | 0.00 | 0.00 | 67 | 1009.0 |
| 20260508123509 | 10 | 171 | 0.0 | 0.0 | 0.00 | 0.00 | 0.00 | 68 | 1009.1 |
| 20260508123022 | 10 | 171 | 0.0 | 0.0 | 0.00 | 0.00 | 0.00 | 68 | 1009.1 |
| 20260508122510 | 10 | 172 | 0.0 | 0.0 | 0.00 | 0.00 | 0.00 | 67 | 1009.1 |
| 20260508122011 | 10 | 172 | 0.0 | 0.0 | 0.00 | 0.00 | 0.00 | 66 | 1009.1 |
| 20260508121519 | 10 | 172 | 0.0 | 0.0 | 0.00 | 0.00 | 0.00 | 67 | 1009.0 |
| 20260508121011 | 10 | 172 | 0.0 | 4.8 | 0.00 | 0.00 | 0.00 | 67 | 1009.0 |
| 20260508120503 | 10 | 172 | 1.6 | 4.8 | 0.00 | 0.00 | 0.00 | 66 | 1009.1 |
| 20260508120022 | 10 | 165 | 1.6 | 4.8 | 0.00 | 0.00 | 0.00 | 66 | 1009.1 |
| 20260508115508 | 10 | 181 | 1.6 | 4.8 | 0.00 | 0.00 | 0.00 | 63 | 1009.2 |
| 20260508115003 | 10 | 134 | 0.0 | 0.0 | 0.00 | 0.00 | 0.00 | 62 | 1009.1 |
| 20260508114508 | 10 | 133 | 0.0 | 0.0 | 0.00 | 0.00 | 0.00 | 64 | 1009.4 |
| 20260508114009 | 10 | 133 | 0.0 | 0.0 | 0.00 | 0.00 | 0.00 | 64 | 1009.4 |
| 20260508113507 | 10 | 134 | 0.0 | 0.0 | 0.00 | 0.00 | 0.00 | 64 | 1009.4 |
| 20260508113006 | 9 | 134 | 0.0 | 0.0 | 0.00 | 0.00 | 0.00 | 65 | 1009.2 |
| 20260508112507 | 10 | 134 | 0.0 | 0.0 | 0.00 | 0.00 | 0.00 | 65 | 1009.1 |
| 20260508112005 | 10 | 134 | 0.0 | 0.0 | 0.00 | 0.00 | 0.00 | 63 | 1009.1 |
| 20260508111508 | 10 | 134 | 0.0 | 0.0 | 0.00 | 0.00 | 0.00 | 61 | 1009.1 |
| 20260508111006 | 10 | 134 | 0.0 | 0.0 | 0.00 | 0.00 | 0.00 | 63 | 1009.2 |
| 20260508110504 | 10 | 134 | 0.0 | 0.0 | 0.00 | 0.00 | 0.00 | 62 | 1009.2 |
| 20260508110019 | 10 | 133 | 0.0 | 0.0 | 0.00 | 0.00 | 0.00 | 58 | 1009.1 |
| 20260508105503 | 9 | 133 | 0.0 | 0.0 | 0.00 | 0.00 | 0.00 | 59 | 1009.1 |
| 20260508105005 | 9 | 134 | 0.0 | 0.0 | 0.00 | 0.00 | 0.00 | 65 | 1009.2 |
| 20260508104520 | 9 | 134 | 0.0 | 0.0 | 0.00 | 0.00 | 0.00 | 65 | 1009.3 |
| 20260508104003 | 10 | 134 | 0.0 | 0.0 | 0.00 | 0.00 | 0.00 | 65 | 1009.5 |
| 20260508103503 | 10 | 134 | 0.0 | 0.0 | 0.00 | 0.00 | 0.00 | 61 | 1009.3 |
| 20260508103023 | 10 | 134 | 0.0 | 0.0 | 0.00 | 0.00 | 0.00 | 62 | 1009.2 |
| 20260508102505 | 10 | 134 | 0.0 | 0.0 | 0.00 | 0.00 | 0.00 | 60 | 1009.0 |
| 20260508102005 | 10 | 133 | 0.0 | 0.0 | 0.00 | 0.00 | 0.00 | 57 | 1009.0 |
| 20260508101504 | 10 | 133 | 0.0 | 0.0 | 0.00 | 0.00 | 0.00 | 57 | 1009.4 |
| 20260508101006 | 9 | 134 | 0.0 | 0.0 | 0.00 | 0.00 | 0.00 | 62 | 1009.7 |
| 20260508100505 | 10 | 134 | 0.0 | 0.0 | 0.00 | 0.00 | 0.00 | 62 | 1009.8 |
| 20260508100013 | 9 | 134 | 0.0 | 0.0 | 0.00 | 0.00 | 0.00 | 66 | 1009.9 |
| 20260508095506 | 10 | 133 | 0.0 | 3.2 | 0.00 | 0.00 | 0.00 | 65 | 1009.9 |
| 20260508095007 | 10 | 134 | 0.0 | 3.2 | 0.00 | 0.00 | 0.00 | 60 | 1009.6 |
| 20260508094507 | 11 | 134 | 0.0 | 1.6 | 0.00 | 0.00 | 0.00 | 57 | 1009.5 |
| 20260508094007 | 11 | 134 | 0.0 | 1.6 | 0.00 | 0.00 | 0.00 | 52 | 1009.5 |
| 20260508093507 | 10 | 134 | 0.0 | 0.0 | 0.00 | 0.00 | 0.00 | 55 | 1009.6 |
| 20260508093003 | 10 | 134 | 0.0 | 0.0 | 0.00 | 0.00 | 0.00 | 58 | 1009.6 |
| 20260508092506 | 10 | 134 | 0.0 | 0.0 | 0.00 | 0.00 | 0.00 | 61 | 1009.7 |
| 20260508092007 | 11 | 134 | 0.0 | 0.0 | 0.00 | 0.00 | 0.00 | 61 | 1009.7 |
| 20260508091523 | 11 | 134 | 0.0 | 0.0 | 0.00 | 0.00 | 0.00 | 62 | 1009.7 |
| 20260508091004 | 11 | 134 | 0.0 | 0.0 | 0.00 | 0.00 | 0.00 | 59 | 1009.6 |
| 20260508090506 | 11 | 134 | 0.0 | 0.0 | 0.00 | 0.00 | 0.00 | 59 | 1009.7 |
| 20260508090008 | 11 | 134 | 0.0 | 0.0 | 0.00 | 0.00 | 0.00 | 60 | 1009.7 |
| 20260508085507 | 11 | 134 | 0.0 | 1.6 | 0.00 | 0.00 | 0.00 | 61 | 1009.8 |
| 20260508085006 | 11 | 134 | 0.0 | 1.6 | 0.00 | 0.00 | 0.00 | 62 | 1009.6 |
| 20260508084511 | 12 | 134 | 0.0 | 3.2 | 0.00 | 0.00 | 0.00 | 54 | 1009.7 |
| 20260508084006 | 12 | 134 | 0.0 | 3.2 | 0.00 | 0.00 | 0.00 | 54 | 1009.9 |
| 20260508083505 | 12 | 134 | 1.6 | 3.2 | 0.00 | 0.00 | 0.00 | 54 | 1009.8 |
| 20260508083018 | 12 | 132 | 1.6 | 3.2 | 0.00 | 0.00 | 0.00 | 56 | 1009.6 |
| 20260508082504 | 12 | 132 | 0.0 | 1.6 | 0.00 | 0.00 | 0.00 | 49 | 1009.6 |
| 20260508082011 | 12 | 131 | 0.0 | 1.6 | 0.00 | 0.00 | 0.00 | 49 | 1009.5 |
| 20260508081509 | 11 | 131 | 0.0 | 1.6 | 0.00 | 0.00 | 0.00 | 59 | 1009.5 |
| 20260508081008 | 11 | 131 | 0.0 | 1.6 | 0.00 | 0.00 | 0.00 | 60 | 1009.6 |
| 20260508080510 | 11 | 131 | 0.0 | 0.0 | 0.00 | 0.00 | 0.00 | 61 | 1009.8 |
| 20260508080010 | 12 | 131 | 0.0 | 3.2 | 0.00 | 0.00 | 0.00 | 59 | 1009.9 |
| 20260508075506 | 12 | 131 | 0.0 | 3.2 | 0.00 | 0.00 | 0.00 | 54 | 1009.9 |
| 20260508075006 | 12 | 242 | 0.0 | 4.8 | 0.00 | 0.00 | 0.00 | 54 | 1010.1 |
| 20260508074512 | 12 | 242 | 0.0 | 4.8 | 0.00 | 0.00 | 0.00 | 52 | 1009.9 |
| 20260508074008 | 12 | 296 | 0.0 | 0.0 | 0.00 | 0.00 | 0.00 | 53 | 1010.0 |
| 20260508073508 | 12 | 296 | 0.0 | 1.6 | 0.00 | 0.00 | 0.00 | 52 | 1009.9 |
| 20260508073014 | 12 | 296 | 0.0 | 4.8 | 0.00 | 0.00 | 0.00 | 54 | 1009.9 |
| 20260508072506 | 12 | 296 | 0.0 | 4.8 | 0.00 | 0.00 | 0.00 | 59 | 1009.8 |
| 20260508072006 | 11 | 342 | 0.0 | 0.0 | 0.00 | 0.00 | 0.00 | 57 | 1009.5 |
| 20260508071506 | 11 | 342 | 0.0 | 0.0 | 0.00 | 0.00 | 0.00 | 58 | 1009.6 |
| 20260508071004 | 11 | 342 | 0.0 | 0.0 | 0.00 | 0.00 | 0.00 | 58 | 1009.6 |
| 20260508070507 | 11 | 342 | 0.0 | 0.0 | 0.00 | 0.00 | 0.00 | 59 | 1009.7 |
| 20260508070004 | 11 | 342 | 0.0 | 0.0 | 0.00 | 0.00 | 0.00 | 57 | 1009.9 |
| 20260508065504 | 11 | 342 | 0.0 | 0.0 | 0.00 | 0.00 | 0.00 | 58 | 1009.9 |
| 20260508065003 | 11 | 342 | 0.0 | 0.0 | 0.00 | 0.00 | 0.00 | 60 | 1010.0 |
| 20260508064503 | 11 | 342 | 0.0 | 0.0 | 0.00 | 0.00 | 0.00 | 62 | 1009.9 |
| 20260508064003 | 12 | 342 | 0.0 | 0.0 | 0.00 | 0.00 | 0.00 | 60 | 1009.9 |
| 20260508063504 | 12 | 342 | 0.0 | 0.0 | 0.00 | 0.00 | 0.00 | 51 | 1010.0 |
| 20260508063010 | 12 | 342 | 0.0 | 0.0 | 0.00 | 0.00 | 0.00 | 50 | 1010.0 |
| 20260508062506 | 12 | 342 | 0.0 | 0.0 | 0.00 | 0.00 | 0.00 | 53 | 1010.1 |
| 20260508062008 | 12 | 342 | 0.0 | 0.0 | 0.00 | 0.00 | 0.00 | 50 | 1010.1 |
| 20260508061508 | 12 | 342 | 0.0 | 0.0 | 0.00 | 0.00 | 0.00 | 53 | 1010.1 |
| 20260508061003 | 12 | 342 | 0.0 | 0.0 | 0.00 | 0.00 | 0.00 | 51 | 1010.0 |
| 20260508060510 | 12 | 342 | 0.0 | 0.0 | 0.00 | 0.00 | 0.00 | 52 | 1009.8 |
| 20260508060007 | 12 | 342 | 0.0 | 0.0 | 0.00 | 0.00 | 0.00 | 56 | 1009.8 |
| 20260508055502 | 12 | 342 | 0.0 | 0.0 | 0.00 | 0.00 | 0.00 | 57 | 1009.7 |
| 20260508055007 | 12 | 342 | 0.0 | 0.0 | 0.00 | 0.00 | 0.00 | 53 | 1009.8 |
| 20260508054510 | 12 | 342 | 0.0 | 0.0 | 0.00 | 0.00 | 0.00 | 57 | 1009.9 |
| 20260508054004 | 12 | 342 | 0.0 | 0.0 | 0.00 | 0.00 | 0.00 | 55 | 1009.8 |
| 20260508053503 | 12 | 342 | 0.0 | 0.0 | 0.00 | 0.00 | 0.00 | 50 | 1009.8 |
| 20260508053006 | 11 | 342 | 0.0 | 0.0 | 0.00 | 0.00 | 0.00 | 54 | 1009.8 |
| 20260508052504 | 11 | 342 | 0.0 | 0.0 | 0.00 | 0.00 | 0.00 | 58 | 1009.7 |
| 20260508052008 | 11 | 342 | 0.0 | 0.0 | 0.00 | 0.00 | 0.00 | 59 | 1009.8 |
| 20260508051511 | 11 | 342 | 0.0 | 0.0 | 0.00 | 0.00 | 0.00 | 57 | 1009.8 |
| 20260508051007 | 11 | 342 | 0.0 | 0.0 | 0.00 | 0.00 | 0.00 | 58 | 1009.8 |
| 20260508050503 | 11 | 342 | 0.0 | 0.0 | 0.00 | 0.00 | 0.00 | 55 | 1009.9 |
| 20260508050015 | 11 | 342 | 0.0 | 0.0 | 0.00 | 0.00 | 0.00 | 56 | 1009.9 |
| 20260508045508 | 12 | 342 | 0.0 | 0.0 | 0.00 | 0.00 | 0.00 | 52 | 1009.9 |
| 20260508045004 | 12 | 342 | 0.0 | 0.0 | 0.00 | 0.00 | 0.00 | 50 | 1010.0 |
| 20260508044513 | 12 | 342 | 0.0 | 0.0 | 0.00 | 0.00 | 0.00 | 52 | 1010.1 |
| 20260508044007 | 12 | 342 | 0.0 | 0.0 | 0.00 | 0.00 | 0.00 | 52 | 1010.1 |
| 20260508043503 | 12 | 342 | 0.0 | 0.0 | 0.00 | 0.00 | 0.00 | 52 | 1010.2 |
| 20260508043017 | 11 | 342 | 0.0 | 0.0 | 0.00 | 0.00 | 0.00 | 54 | 1010.1 |
| 20260508042504 | 11 | 342 | 0.0 | 0.0 | 0.00 | 0.00 | 0.00 | 50 | 1010.1 |
| 20260508042007 | 11 | 342 | 0.0 | 0.0 | 0.00 | 0.00 | 0.00 | 49 | 1010.1 |
| 20260508041516 | 11 | 342 | 0.0 | 0.0 | 0.00 | 0.00 | 0.00 | 50 | 1010.1 |
| 20260508041003 | 11 | 342 | 0.0 | 0.0 | 0.00 | 0.00 | 0.00 | 48 | 1010.1 |
| 20260508040507 | 11 | 342 | 0.0 | 0.0 | 0.00 | 0.00 | 0.00 | 51 | 1010.2 |
| 20260508040019 | 12 | 342 | 0.0 | 0.0 | 0.00 | 0.00 | 0.00 | 51 | 1010.2 |
| 20260508035505 | 12 | 342 | 0.0 | 0.0 | 0.00 | 0.00 | 0.00 | 50 | 1010.2 |
| 20260508035006 | 12 | 342 | 0.0 | 0.0 | 0.00 | 0.00 | 0.00 | 46 | 1010.0 |
| 20260508034511 | 12 | 342 | 0.0 | 0.0 | 0.00 | 0.00 | 0.00 | 45 | 1009.9 |
| 20260508034007 | 12 | 342 | 0.0 | 0.0 | 0.00 | 0.00 | 0.00 | 47 | 1009.9 |
| 20260508033506 | 12 | 342 | 0.0 | 0.0 | 0.00 | 0.00 | 0.00 | 46 | 1009.9 |
| 20260508033010 | 13 | 342 | 0.0 | 0.0 | 0.00 | 0.00 | 0.00 | 44 | 1010.0 |
| 20260508032508 | 13 | 342 | 0.0 | 0.0 | 0.00 | 0.00 | 0.00 | 43 | 1010.1 |
| 20260508032004 | 13 | 342 | 0.0 | 0.0 | 0.00 | 0.00 | 0.00 | 45 | 1010.1 |
| 20260508031515 | 13 | 342 | 0.0 | 0.0 | 0.00 | 0.00 | 0.00 | 44 | 1010.1 |
| 20260508031003 | 13 | 342 | 0.0 | 0.0 | 0.00 | 0.00 | 0.00 | 43 | 1010.1 |
| 20260508030503 | 13 | 342 | 0.0 | 0.0 | 0.00 | 0.00 | 0.00 | 43 | 1010.1 |
| 20260508030013 | 13 | 342 | 0.0 | 0.0 | 0.00 | 0.00 | 0.00 | 44 | 1010.0 |
| 20260508025510 | 13 | 342 | 0.0 | 0.0 | 0.00 | 0.00 | 0.00 | 41 | 1009.9 |
| 20260508025009 | 13 | 342 | 0.0 | 0.0 | 0.00 | 0.00 | 0.00 | 41 | 1009.9 |
| 20260508024516 | 14 | 342 | 0.0 | 0.0 | 0.00 | 0.00 | 0.00 | 40 | 1009.9 |
| 20260508024007 | 14 | 342 | 0.0 | 0.0 | 0.00 | 0.00 | 0.00 | 39 | 1009.9 |
| 20260508023507 | 14 | 342 | 0.0 | 0.0 | 0.00 | 0.00 | 0.00 | 38 | 1009.9 |
| 20260508023021 | 15 | 342 | 0.0 | 0.0 | 0.00 | 0.00 | 0.00 | 39 | 1009.9 |
| 20260508022505 | 14 | 342 | 0.0 | 0.0 | 0.00 | 0.00 | 0.00 | 39 | 1009.9 |
| 20260508022006 | 14 | 342 | 0.0 | 0.0 | 0.00 | 0.00 | 0.00 | 41 | 1009.8 |
| 20260508021520 | 15 | 342 | 0.0 | 0.0 | 0.00 | 0.00 | 0.00 | 42 | 1009.7 |
| 20260508021009 | 15 | 342 | 0.0 | 0.0 | 0.00 | 0.00 | 0.00 | 40 | 1009.6 |
| 20260508020506 | 15 | 342 | 0.0 | 0.0 | 0.00 | 0.00 | 0.00 | 42 | 1009.6 |
| 20260508020022 | 15 | 342 | 0.0 | 0.0 | 0.00 | 0.00 | 0.00 | 39 | 1009.4 |
| 20260508015506 | 15 | 342 | 0.0 | 0.0 | 0.00 | 0.00 | 0.00 | 42 | 1009.4 |
| 20260508015006 | 15 | 342 | 0.0 | 0.0 | 0.00 | 0.00 | 0.00 | 40 | 1009.4 |
| 20260508014515 | 15 | 342 | 0.0 | 0.0 | 0.00 | 0.00 | 0.00 | 38 | 1009.4 |
| 20260508014009 | 16 | 342 | 0.0 | 0.0 | 0.00 | 0.00 | 0.00 | 37 | 1009.4 |
| 20260508013511 | 16 | 342 | 0.0 | 0.0 | 0.00 | 0.00 | 0.00 | 37 | 1009.4 |
| 20260508013013 | 17 | 342 | 0.0 | 1.6 | 0.00 | 0.00 | 0.00 | 35 | 1009.4 |
| 20260508012508 | 17 | 342 | 0.0 | 1.6 | 0.00 | 0.00 | 0.00 | 33 | 1009.2 |
| 20260508012010 | 17 | 342 | 0.0 | 8.0 | 0.00 | 0.00 | 0.00 | 33 | 1009.1 |
| 20260508011514 | 18 | 342 | 1.6 | 8.0 | 0.00 | 0.00 | 0.00 | 30 | 1009.0 |
| 20260508011006 | 18 | 342 | 3.2 | 8.0 | 0.00 | 0.00 | 0.00 | 30 | 1008.9 |
| 20260508010507 | 18 | 329 | 1.6 | 4.8 | 0.00 | 0.00 | 0.00 | 31 | 1008.9 |
| 20260508010032 | 18 | 331 | 0.0 | 4.8 | 0.00 | 0.00 | 0.00 | 32 | 1008.8 |